Exceptional Flight Instruction

Our Team

Safe Aircraft

Our Rentals

Outstanding Customer Service

Contact Us

AeroCamp 2017

AeroCamp Times (M-F 9AM-3PM)
June 19-23, 2017 – OPEN
July 10-14, 2017 – OPEN
$649/wk per Cadet (Roster size limited)

AeroCamp 2.0 Times (M-T 9AM-3PM)
June 26-29, 2017 – OPEN
July 17-20, 2017 – OPEN
$749/wk per Cadet (Roster size limited)

AeroCamp 3.0 Times (M-W – INCLUDES KITTY HAWK!)
June 12-14, 2017 – OPEN
August 7-9, 2017 – OPEN
$849/wk per Cadet (Roster size limited)

AeroCamp 4.0 Times (INCLUDES OSHKOSH!!)

July 24-28, 2017 - OPEN

Price TBD (Roster size limited)

About Us

Triad Aviation Academy, LLC


1030 PTI Drive
Greensboro, NC 27409

Phone: (336) 369-2804
Fax: (336) 664-6942

Weather

Available data for KGSO from the past 2 hours
GREENSBORO, NC
Metar
KGSO 202354Z 13004KT 10SM OVC250 18/03 A3018 RMK AO2 SLP218 T01830033 10222 20172 53007

23:54 UTC

Wind: 130° 4kt

Visibility: 10 SM

Sky: OVC 25000 ft

Temp: 18 deg C / 64.4 deg F

Dewpoint: 3 deg C / 37.4 deg F

Pressure: 30.18 inHg

TAF
KGSO 202330Z 2100/2124 VRB03KT P6SM BKN250 TEMPO 2109/2112 6SM BR SCT004 FM211600 14005KT P6SM FEW050 BKN250